Location: Monroe
(41.9160°N, 83.3980°W)
Time: 15:55:51
(UTC-04:00)

ISS - All Passes

Search period start: 21 October 2014 00:00
Search period end: 31 October 2014 00:00
Orbit: 413 x 416 km, 51.6° (Epoch: 21 October)

Date Brightness Start Highest point End Pass type
(mag) Time Alt. Az. Time Alt. Az. Time Alt. Az.
21 Oct - 14:01:52 10° S 14:04:05 17° SE 14:06:18 10° E daylight
21 Oct - 15:37:10 10° WSW 15:40:28 60° NNW 15:43:47 10° NE daylight
21 Oct - 17:15:15 10° WNW 17:17:41 19° NNW 17:20:08 10° NE daylight
21 Oct - 18:53:05 10° NW 18:55:20 17° N 18:57:34 10° NE daylight
21 Oct - 20:29:30 10° NW 20:32:42 40° NNE 20:35:53 10° E visible
21 Oct - 22:06:25 10° WNW 22:09:17 27° SW 22:12:09 10° SSE visible
22 Oct - 14:48:05 10° SW 14:51:24 80° SE 14:54:45 10° ENE daylight
22 Oct - 16:25:42 10° WNW 16:28:25 22° NNW 16:31:08 10° NE daylight
22 Oct - 18:03:54 10° NW 18:06:01 15° N 18:08:07 10° NE daylight
22 Oct - 19:40:33 10° NW 19:43:31 28° NNE 19:46:28 10° E visible
22 Oct - 21:17:06 10° WNW 21:20:20 47° SW 21:23:33 10° SE visible
23 Oct - 13:59:11 10° SSW 14:02:22 44° SE 14:05:34 10° ENE daylight
23 Oct - 15:36:11 10° W 15:39:09 29° NNW 15:42:09 10° NE daylight
23 Oct - 17:14:32 10° NW 17:16:39 16° N 17:18:45 10° NE daylight
23 Oct - 18:51:33 10° NW 18:54:15 22° NNE 18:56:56 10° ENE daylight
23 Oct - 20:27:56 10° NW 20:31:17 85° SW 20:34:36 10° SE visible
24 Oct - 13:10:33 10° SSW 13:13:21 25° SE 13:16:09 10° ENE daylight
24 Oct - 14:46:43 10° W 14:49:54 42° NNW 14:53:07 10° NE daylight
24 Oct - 16:25:00 10° NW 16:27:15 17° N 16:29:30 10° NE daylight
24 Oct - 18:02:29 10° NW 18:04:53 18° NNE 18:07:18 10° ENE daylight
24 Oct - 19:38:49 10° NW 19:42:07 57° NNE 19:45:24 10° ESE visible
24 Oct - 21:16:12 10° W 21:18:31 18° SW 21:20:50 10° S visible
25 Oct - 12:22:27 10° SSE 12:24:22 15° SE 12:26:17 10° E daylight
25 Oct - 13:57:22 10° WSW 14:00:41 68° NNW 14:04:01 10° NE daylight
25 Oct - 15:35:21 10° WNW 15:37:50 19° NNW 15:40:20 10° NE daylight
25 Oct - 17:13:17 10° NW 17:15:28 16° N 17:17:39 10° NE daylight
25 Oct - 18:49:43 10° NW 18:52:52 37° NNE 18:55:59 10° E daylight
25 Oct - 20:26:31 10° WNW 20:29:30 30° SW 20:32:28 10° SSE visible
26 Oct - 13:08:10 10° SW 13:11:28 70° SE 13:14:48 10° ENE daylight
26 Oct - 14:45:39 10° WNW 14:48:26 24° NNW 14:51:12 10° NE daylight
26 Oct - 16:23:54 10° NW 16:25:59 15° N 16:28:04 10° NE daylight
26 Oct - 18:00:37 10° NW 18:03:30 26° NNE 18:06:23 10° E daylight
26 Oct - 19:37:06 10° WNW 19:40:22 55° SW 19:43:38 10° SE visible
27 Oct - 12:19:11 10° SSW 12:22:18 38° SE 12:25:25 10° ENE daylight
27 Oct - 13:55:59 10° W 13:59:01 32° NNW 14:02:04 10° NE daylight
27 Oct - 15:34:21 10° NW 15:36:28 16° N 15:38:35 10° NE daylight
27 Oct - 17:11:27 10° NW 17:14:04 21° NNE 17:16:40 10° ENE daylight
27 Oct - 18:47:48 10° NW 18:51:08 84° NE 18:54:28 10° ESE daylight
27 Oct - 20:26:09 10° WSW 20:27:22 12° SW 20:28:35 10° SSW visible
28 Oct - 11:30:31 10° S 11:33:08 22° SE 11:35:47 10° E daylight
28 Oct - 13:06:24 10° WSW 13:09:38 47° NNW 13:12:52 10° NE daylight
28 Oct - 14:44:37 10° NW 14:46:55 17° N 14:49:13 10° NE daylight
28 Oct - 16:22:12 10° NW 16:24:33 17° N 16:26:53 10° NE daylight
28 Oct - 17:58:33 10° NW 18:01:49 50° NNE 18:05:04 10° ESE daylight
28 Oct - 19:35:44 10° W 19:38:16 20° SW 19:40:48 10° S visible
29 Oct - 10:42:31 10° SSE 10:44:01 13° SE 10:45:31 10° ESE daylight
29 Oct - 12:16:56 10° WSW 12:20:15 78° NW 12:23:36 10° NE daylight
29 Oct - 13:54:48 10° WNW 13:57:21 20° NNW 13:59:55 10° NE daylight
29 Oct - 15:32:49 10° NW 15:34:58 16° N 15:37:06 10° NE daylight
29 Oct - 17:09:18 10° NW 17:12:23 33° NNE 17:15:27 10° E daylight
29 Oct - 18:45:59 10° WNW 18:49:04 35° SW 18:52:08 10° SSE daylight
30 Oct - 11:27:39 10° SW 11:30:55 59° SE 11:34:12 10° ENE daylight
30 Oct - 13:04:57 10° W 13:07:48 25° NNW 13:10:39 10° NE daylight
30 Oct - 14:43:15 10° NW 14:45:19 15° N 14:47:23 10° NE daylight
30 Oct - 16:20:03 10° NW 16:22:51 24° NNE 16:25:40 10° ENE daylight
30 Oct - 17:56:28 10° WNW 17:59:46 65° SW 18:03:03 10° SE daylight
